Regional Weather Roundup
Issued by NWS

Home | Current Version | Previous Version | Graphics & Text | Print | Product List | Glossary On
Versions: 1 2 3 4 5 6 7 8 9 10 11 12 13 14 15 16 17 18 19 20 21 22 23 24 25 26 27
000
ASUS45 KCYS 041510
RWRWY

WYOMING REGIONAL WEATHER ROUNDUP
NATIONAL WEATHER SERVICE CHEYENNE WY
900 AM MDT WED MAY 04 2016

NOTE:  "FAIR" INDICATES FEW OR NO CLOUDS BELOW 12,000 FEET
WITH NO SIGNIFICANT WEATHER AND/OR OBSTRUCTIONS TO VISIBILITY.

WYZ001-041600-
YELLOWSTONE NATIONAL PARK

CITY           SKY/WX    TMP DP  RH WIND       PRES   REMARKS
LK YELLOWSTONE   N/A     38  24  57 CALM      30.34S
W YELLOWSTONE  NOT AVBL

$$
WYZ002>013-054>058-071-098>099-041600-
NORTHERN WYOMING

CITY           SKY/WX    TMP DP  RH WIND       PRES   REMARKS
JACKSON        SUNNY     45  28  53 CALM      30.30F
CODY           FAIR      63  30  29 SW10      30.15S
GREYBULL       FAIR      60  37  42 CALM      30.14S
WORLAND        FAIR      56  42  59 SW5       30.15F
SHERIDAN       FAIR      59  44  57 CALM      30.11F
BUFFALO        FAIR      65  38  36 SE5       30.16S
GILLETTE       FAIR      63  43  48 S15       30.14F
HULETT         FAIR      63  45  51 CALM      30.17F
NEWCASTLE      FAIR      59  37  44 S6        30.20S

$$
WYZ014>020-022>026-101>103-041600-
CENTRAL WYOMING

CITY           SKY/WX    TMP DP  RH WIND       PRES   REMARKS
BIG PINEY      FAIR      49  29  46 E5        30.32F
PINEDALE       FAIR      46  30  53 CALM      30.32F
DUBOIS         FAIR      50  28  43 NW6       30.28F
LANDER         FAIR      54  36  50 CALM      30.22S
RIVERTON       FAIR      54  37  52 NW5       30.23S
CASPER         FAIR      59  38  45 SW13      30.22F
DOUGLAS        FAIR      53  41  63 SE5       30.23S

$$
WYZ021-027>030-104>119-041600-
SOUTHERN WYOMING

CITY           SKY/WX    TMP DP  RH WIND       PRES   REMARKS
EVANSTON       FAIR      53  22  29 SE3       30.29F
KEMMERER         N/A     50  30  46 N5        30.31S
FORT BRIDGER   SUNNY     52  28  40 CALM      30.33F
ROCK SPRINGS   FAIR      50  31  48 S3        30.30S
DIXON          FAIR      51  30  44 SE5       30.34F
RAWLINS        FAIR      50  33  52 VRB3      30.32S
SARATOGA       FAIR      54  30  40 SE14      30.33F
LARAMIE        FAIR      47  33  58 S5        30.32F
CHEYENNE       FAIR      58  35  42 W5        30.28S
TORRINGTON     FAIR      55  40  56 W3        30.21S
PINE BLUFFS    FAIR      54  41  62 CALM      30.26S

$$




USA.gov is the U.S. government's official web portal to all federal, state and local government web resources and services.